Location: Holcomb Observatory and Planetarium
(39.8415°N, 86.1714°W)
Time: 13:26:43
(UTC-04:00)

HST - Visible Passes

Search period start: 30 October 2014 00:00
Search period end: 08 November 2014 23:00
Orbit: 546 x 550 km, 28.5° (Epoch: 29 October)

Date Brightness Start Highest point End Pass type
(mag) Time Alt. Az. Time Alt. Az. Time Alt. Az.
30 Oct 2.9 20:11:52 10° SW 20:14:38 17° S 20:16:22 14° SSE visible
31 Oct 3.0 20:04:29 10° SW 20:07:10 17° S 20:09:30 11° SSE visible
01 Nov 3.2 19:57:10 10° SW 19:59:42 16° S 20:02:14 10° SSE visible
02 Nov 3.3 18:49:55 10° SW 18:52:13 14° S 18:54:30 10° SSE visible
03 Nov 3.4 18:42:49 10° SW 18:44:43 13° SSW 18:46:36 10° SSE visible
04 Nov 3.6 18:36:02 10° SSW 18:37:12 11° SSW 18:38:21 10° S visible
